Weather History for Kinston, NC

Change the Weather History Date:

Thursday, July 11, 2013

  Actual Average Record
Temperature  
Mean Temperature 80 °F -  
Max Temperature 87 °F 86 °F 100 °F (1992)
Min Temperature 73 °F 69 °F 61 °F (1983)
Cooling Degree Days 15    
Growing Degree Days 30 (Base 50)    
Moisture  
Dew Point 72 °F    
Average Humidity 87    
Maximum Humidity 96    
Minimum Humidity 58    
Precipitation  
Precipitation 0.02 in - - ()
Sea Level Pressure  
Sea Level Pressure 29.97 in    
Wind  
Wind Speed 7 mph (South)    
Max Wind Speed 14 mph    
Max Gust Speed 18 mph    
Visibility 10 miles    
Events Rain    
Averages and records for this station are not official NWS values.
T = Trace of Precipitation, MM = Missing Value Source: NWS Daily Summary

Daily Weather History Graph

Daily Weather History Graph

Search for Another Location

Airport:

Trip Planner

Search our weather history database for the weather conditions in past years. The results will help you decide how hot, cold, wet, or windy it might be!

Date:

Astronomy

Jul. 11, 2013 Rise Set
Actual Time 6:04 AM EDT 8:27 PM EDT
Civil Twilight 5:35 AM EDT 8:56 PM EDT
Nautical Twilight 4:59 AM EDT 9:32 PM EDT
Astronomical Twilight 4:19 AM EDT 10:11 PM EDT
Moon 9:12 AM EDT (7/11) 10:16 PM EDT (7/11)
Length of Visible Light 15h 21m
Length of Day
14h 22m
Waxing Crescent, 10% of the Moon is Illuminated
Jul 11
Waxing Crescent
Jul 15
First Quarter
Jul 22
Full
Jul 29
Last Quarter
Aug 6
New

Hourly Weather History & Observations

Time (EDT) Temp. Heat Index Dew Point Humidity Pressure Visibility Wind Dir Wind Speed Gust Speed Precip Events Conditions
12:15 AM 76.1 °F - 72.0 °F 87% 30.02 in 10.0 mi South 8.1 mph - N/A   Clear
12:35 AM 75.9 °F - 72.0 °F 87% 30.02 in 10.0 mi South 6.9 mph - N/A   Clear
12:55 AM 75.6 °F - 72.0 °F 89% 30.02 in 10.0 mi South 5.8 mph - N/A   Clear
1:15 AM 75.4 °F - 72.0 °F 89% 30.02 in 10.0 mi South 6.9 mph - N/A   Clear
1:35 AM 75.4 °F - 72.3 °F 90% 30.01 in 10.0 mi South 8.1 mph - N/A   Clear
1:55 AM 75.4 °F - 72.5 °F 91% 30.00 in 10.0 mi South 5.8 mph - N/A   Clear
2:15 AM 75.2 °F - 72.3 °F 91% 29.99 in 10.0 mi SSE 6.9 mph - N/A   Clear
2:35 AM 75.2 °F - 72.5 °F 91% 29.98 in 10.0 mi South 6.9 mph - N/A   Clear
2:55 AM 75.2 °F - 72.5 °F 91% 29.97 in 10.0 mi South 8.1 mph - N/A   Clear
3:15 AM 74.8 °F - 72.1 °F 91% 29.98 in 10.0 mi South 5.8 mph - N/A   Clear
3:35 AM 74.7 °F - 72.1 °F 92% 29.97 in 10.0 mi South 5.8 mph - N/A   Clear
3:55 AM 74.5 °F - 72.1 °F 92% 29.97 in 10.0 mi SW 3.5 mph - N/A   Clear
4:15 AM 74.3 °F - 72.1 °F 93% 29.97 in 10.0 mi South 4.6 mph - N/A   Clear
4:35 AM 74.3 °F - 72.1 °F 93% 29.97 in 10.0 mi South 3.5 mph - N/A   Scattered Clouds
4:55 AM 74.5 °F - 72.3 °F 93% 29.97 in 10.0 mi South 5.8 mph - N/A   Mostly Cloudy
5:15 AM 74.5 °F - 72.5 °F 94% 29.97 in 10.0 mi South 5.8 mph - N/A   Mostly Cloudy
5:35 AM 74.7 °F - 72.5 °F 93% 29.98 in 10.0 mi SSW 4.6 mph - N/A   Mostly Cloudy
5:55 AM 74.7 °F - 72.5 °F 93% 29.98 in 10.0 mi SSW 5.8 mph - N/A   Overcast
6:15 AM 75.0 °F - 72.5 °F 92% 29.98 in 10.0 mi SW 6.9 mph - N/A   Mostly Cloudy
6:35 AM 75.0 °F - 72.1 °F 91% 29.99 in 10.0 mi SW 5.8 mph - N/A   Scattered Clouds
6:55 AM 75.6 °F - 72.5 °F 90% 29.99 in 10.0 mi SW 5.8 mph - N/A   Scattered Clouds
6:56 AM 75.2 °F - 71.6 °F 89% 29.99 in 10.0 mi SW 5.8 mph - N/A   Scattered Clouds
7:56 AM 77.0 °F - 73.4 °F 89% 30.01 in 10.0 mi SW 8.1 mph - N/A   Scattered Clouds
8:56 AM 80.6 °F 85.4 °F 73.4 °F 79% 29.99 in 10.0 mi SW 11.5 mph 16.1 mph N/A   Scattered Clouds
9:56 AM 82.4 °F 87.2 °F 71.6 °F 70% 30.00 in 10.0 mi WSW 8.1 mph 11.5 mph N/A   Mostly Cloudy
10:56 AM 86.0 °F 93.4 °F 73.4 °F 66% 29.99 in 10.0 mi WSW 9.2 mph - N/A   Mostly Cloudy
11:56 AM 87.8 °F 93.8 °F 71.6 °F 58% 29.98 in 10.0 mi SW 9.2 mph 16.1 mph N/A   Scattered Clouds
12:56 PM 86.0 °F 91.8 °F 71.6 °F 62% 29.97 in 10.0 mi WSW 10.4 mph - N/A   Mostly Cloudy
1:56 PM 86.0 °F 91.8 °F 71.6 °F 62% 29.94 in 10.0 mi SW 9.2 mph - N/A   Scattered Clouds
2:56 PM 80.6 °F 84.6 °F 71.6 °F 74% 29.93 in 10.0 mi South 3.5 mph - N/A   Scattered Clouds
3:56 PM 87.8 °F 93.8 °F 71.6 °F 58% 29.91 in 10.0 mi WSW 5.8 mph - N/A   Clear
4:56 PM 78.8 °F - 71.6 °F 78% 29.91 in 10.0 mi North 10.4 mph - N/A   Clear
5:56 PM 80.6 °F 84.6 °F 71.6 °F 74% 29.91 in 10.0 mi ESE 13.8 mph 18.4 mph N/A   Mostly Cloudy
6:31 PM 73.4 °F - 71.6 °F 94% 29.95 in 2.5 mi NNW 3.5 mph - N/A Rain Rain
6:56 PM 73.4 °F - 71.6 °F 94% 29.94 in 7.0 mi ENE 10.4 mph - N/A Rain Light Rain
7:56 PM 73.4 °F - 71.6 °F 94% 29.93 in 10.0 mi SE 4.6 mph - N/A   Mostly Cloudy
8:56 PM 73.4 °F - 71.6 °F 94% 29.92 in 10.0 mi Calm Calm - N/A   Clear
9:15 PM 73.4 °F - 71.6 °F 94% 29.93 in 10.0 mi Calm Calm - N/A   Clear
9:35 PM 73.4 °F - 72.0 °F 95% 29.93 in 10.0 mi South 3.5 mph - N/A   Mostly Cloudy
9:55 PM 73.6 °F - 72.1 °F 95% 29.94 in 10.0 mi SSE 4.6 mph - N/A   Overcast
9:56 PM 73.4 °F - 71.6 °F 94% 29.94 in 10.0 mi SSE 4.6 mph - N/A   Mostly Cloudy
10:15 PM 73.8 °F - 72.3 °F 95% 29.94 in 10.0 mi SSE 5.8 mph - N/A   Mostly Cloudy
10:35 PM 73.8 °F - 72.1 °F 95% 29.94 in 10.0 mi South 4.6 mph - 0.01 in Rain Rain
10:55 PM 73.8 °F - 72.3 °F 95% 29.94 in 7.0 mi SE 4.6 mph - 0.02 in Rain Light Rain
11:15 PM 73.8 °F - 72.5 °F 96% 29.94 in 10.0 mi SSE 3.5 mph - N/A Rain Light Rain
11:35 PM 73.8 °F - 72.5 °F 96% 29.93 in 10.0 mi SSE 6.9 mph - N/A   Mostly Cloudy
11:55 PM 73.9 °F - 72.5 °F 95% 29.93 in 10.0 mi SE 4.6 mph - N/A   Scattered Clouds